Regional Weather Roundup
Issued by NWS

Home | Current Version | Previous Version | Text Only | Print | Product List | Glossary Off
Versions: 1 2 3 4 5 6 7 8 9 10 11 12 13 14 15 16 17 18 19 20 21 22 23 24 25 26 27 28 29 30 31 32 33 34 35 36 37 38 39 40 41 42 43 44 45 46 47 48 49 50

000
ASUS43 KFSD 250410
RWRSD

WEATHER ROUNDUP FOR SOUTH DAKOTA
NATIONAL WEATHER SERVICE SIOUX FALLS SD
1100 PM CDT SUN MAY 24 2015

NOTE: "FAIR" INDICATES FEW OR NO CLOUDS BELOW 12,000 FEET WITH NO
SIGNIFICANT WEATHER AND/OR OBSTRUCTIONS TO VISIBILITY.


SDZ001>005-009-010-012>017-250500-
NORTHWEST AND NORTH CENTRAL SOUTH DAKOTA

CITY           SKY/WX    TMP DP  RH WIND       PRES   REMARKS
BUFFALO          N/A     54  50  86 NE13      29.84S
FAITH            N/A     54  52  93 NE14      29.86F
MOBRIDGE       RAIN      58  58 100 NE8       29.84S FOG
$$

SDZ012>016-024>037-041>051-057-063-072>074-250500-
SOUTHWEST AND SOUTH CENTRAL SOUTH DAKOTA

CITY           SKY/WX    TMP DP  RH WIND       PRES   REMARKS
RAPID CTY ARPT CLOUDY    54  53  97 N7        29.88R
PIERRE         CLOUDY    58  57  97 NE6       29.82R FOG
CUSTER         CLOUDY    47  45  93 NE9       29.91R
ELLSWORTH AFB  CLOUDY    54  54 100 N10       29.88
PHILIP         CLOUDY    56  55  97 NE7       29.84R
PINE RIDGE     CLOUDY    56  53  90 E8        29.84R
SPEARFISH      FOG       50  50 100 NE7       29.91F VSB 1
WINNER         FOG       60  58  92 NE3       29.82R VSB 1/2
$$

SDZ004>011-016>023-039-040-250500-
NORTHEAST SOUTH DAKOTA

CITY           SKY/WX    TMP DP  RH WIND       PRES   REMARKS
ABERDEEN       LGT RAIN  58  56  93 N7        29.84S FOG
WATERTOWN      LGT RAIN  57  55  93 E12       29.80F
BROOKINGS      CLOUDY    57  55  94 E8        29.79S
SISSETON         N/A     58  58 100 E10       29.83F
$$

SDZ017-020-022-023-036>040-048>070-250500-
SOUTHEAST SOUTH DAKOTA

CITY           SKY/WX    TMP DP  RH WIND       PRES   REMARKS
SIOUX FALLS    CLOUDY    59  58  96 NE8       29.77S
HURON          CLOUDY    59  57  93 N6        29.81R
CHAMBERLAIN    MOCLDY    58  57  99 E6        29.80F
MITCHELL       CLOUDY    61  59  93 NE5       29.80R
YANKTON        CLOUDY    61  57  88 CALM      29.77S
$$

ABBREVIATIONS USED IN REMARKS
   TC - TEMPERATURE IN CELSIUS
  WCI - WIND CHILL INDEX
   HX - HEAT INDEX
  VSB - VISIBILITY




USA.gov is the U.S. government's official web portal to all federal, state and local government web resources and services.